Location: Newark
(49.3000°N, 9.4667°E)
Time: 21:30:33
(UTC+00:00)

Tiros 1 - Pass Details

Date: 25 May 2019
Orbit: 631 x 664 km, 48.4° (Epoch: 17 June)

Event Time Altitude Azimuth Distance (km) Brightness Sun altitude
Rises 11:03:46 0° 254° (WSW) 2,926 10.6 61.5°
Reaches altitude 10° 11:06:04 10° 252° (WSW) 2,023 9.9 61.5°
Maximum altitude 11:10:43 73° 169° (S) 675 9.6 61.6°
Drops below altitude 10° 11:15:25 10° 85° (E) 2,047 9.8 61.6°
Sets 11:17:46 0° 84° (E) 2,964 10.5 61.6°
